Stations météo

réclame
Mon MeteoGroup
Marseille/Marignane, France (7650): Température de l'air & dewpoint: 14.11.2017 12:00:00 - 20.11.2017 12:00:00 (CET)Marseille/Marignane, France (7650): Température de l'air 5cm: 14.11.2017 12:00:00 - 20.11.2017 12:00:00 (CET)Marseille/Marignane, France (7650): Température de l'air -20cm & Température de l'air -100cm: 14.11.2017 12:00:00 - 20.11.2017 12:00:00 (CET)Marseille/Marignane, France (7650): Vitesse du vent & gusts: 14.11.2017 12:00:00 - 20.11.2017 12:00:00 (CET)Marseille/Marignane, France (7650): Direction du vent: 14.11.2017 12:00:00 - 20.11.2017 12:00:00 (CET)Marseille/Marignane, France (7650): reduced air pressure: 14.11.2017 12:00:00 - 20.11.2017 12:00:00 (CET)Marseille/Marignane, France (7650): visibility: 14.11.2017 12:00:00 - 20.11.2017 12:00:00 (CET)Marseille/Marignane, France (7650): Ensoleillement: 14.11.2017 12:00:00 - 20.11.2017 12:00:00 (CET)Marseille/Marignane, France (7650): Quantités de précipitations: 14.11.2017 12:00:00 - 20.11.2017 12:00:00 (CET)
Date & Time tt [°C] td [°C] tt 5cm [°C] tt -20cm [°C] tt -100cm [°C] ff [km/h] ff [knt] fx [km/h] fx [knt] dd ppp [hPa] vv [km] sd [min] rr [mm]
20.11.2017 12:00:00 11,9 0,9 16,0 7,5 15,4 8 4 22 12 NW 1021,9 10 60 0,0
20.11.2017 11:00:00 10,6 1,7 12,0 7,2 15,4 8 4 19 10 NNW 1022,2 10 60 0,0
20.11.2017 10:00:00 8,4 1,5 10,7 7,1 15,4 9 5 19 10 N 1021,7 10 60 0,0
20.11.2017 09:00:00 7,2 1,5 2,1 7,3 15,4 8 4 26 14 N 1021,6 10 60 0,0
20.11.2017 08:00:00 5,0 0,9 -0,1 7,6 15,5 8 4 16 9 N 1020,9 10 5 0,0
20.11.2017 07:00:00 6,6 1,5 2,3 7,8 15,5 8 4 22 12 NNW 1020,3 53 0 0,0
20.11.2017 06:00:00 7,2 2,1 2,2 8,0 15,5 11 6 18 10 NNW 1019,9 10 0 0,0
20.11.2017 05:00:00 7,9 1,5 4,5 8,2 15,5 9 5 18 10 N 1019,5 10 0 0,0
20.11.2017 04:00:00 8,7 2,3 7,3 8,4 15,5 18 10 29 16 NW 1019,4 10 0 0,0
20.11.2017 03:00:00 8,6 2,8 7,5 8,5 15,5 22 12 35 19 NW 1019,4 10 0 0,0
20.11.2017 02:00:00 9,2 2,7 7,2 8,6 15,5 24 13 61 33 NW 1019,5 10 0 0,0
20.11.2017 01:00:00 9,9 3,2 9,0 8,7 15,5 39 21 66 36 NNW 1019,2 10 0 0,0
20.11.2017 00:00:00 10,4 3,0 9,5 8,8 15,5 44 24 76 41 NNW 1018,3 10 0 0,0
19.11.2017 23:00:00 10,6 3,1 9,7 8,9 15,5 29 16 58 31 NW 1019,0 10 0 0,0
19.11.2017 22:00:00 10,8 3,8 9,5 9,0 15,6 31 17 50 27 NW 1019,1 10 0 0,0
19.11.2017 21:00:00 10,7 3,9 9,3 9,1 15,6 22 12 40 22 WNW 1018,8 10 0 0,0
19.11.2017 20:00:00 10,7 3,9 9,6 9,3 15,6 24 13 53 29 WNW 1018,2 10 0 0,0
19.11.2017 19:00:00 11,3 4,3 10,6 9,3 15,6 42 23 73 40 WNW 1018,0 60 0 0,0
19.11.2017 18:00:00 12,2 4,2 11,4 9,2 15,6 57 31 78 42 NW 1016,6 10 2 0,0
19.11.2017 17:00:00 13,2 4,1 13,1 9,1 15,6 37 20 64 35 NW 1016,6 10 60 0,0
19.11.2017 16:00:00 13,8 4,1 15,2 8,7 15,6 48 26 78 42 NW 1016,2 10 60 0,0
19.11.2017 15:00:00 14,5 4,2 16,3 8,2 15,6 53 29 72 39 NW 1015,8 16 60 0,0
19.11.2017 14:00:00 15,3 4,0 16,3 7,5 15,6 50 27 72 39 WNW 1015,7 10 60 0,0
19.11.2017 13:00:00 14,2 2,7 15,3 6,9 15,6 41 22 64 34 WNW 1016,3 10 60 0,0
19.11.2017 12:00:00 12,5 1,8 13,2 6,3 15,6 31 17 62 34 NW 1017,4 10 60 0,0
19.11.2017 11:00:00 10,6 0,6 11,5 6,0 15,6 42 23 66 35 WNW 1017,8 31 60 0,0
19.11.2017 10:00:00 8,9 0,1 8,1 5,8 15,7 35 19 53 28 NW 1017,8 10 60 0,0
19.11.2017 09:00:00 7,2 -0,8 5,5 5,8 15,6 11 6 27 15 WSW 1018,3 10 6 0,0
19.11.2017 08:00:00 6,3 -1,1 5,4 5,8 15,7 22 12 44 24 NW 1017,8 10 0 0,0
19.11.2017 07:00:00 6,5 -0,7 4,2 5,9 15,7 31 17 51 28 NW 1017,5 10 0 0,0
19.11.2017 06:00:00 5,4 -0,7 0,6 6,1 15,7 22 12 35 19 NW 1017,4 10 0 0,0
19.11.2017 05:00:00 3,4 0,6 -2,0 6,4 15,7 9 5 19 10 NNW 1017,8 10 0 0,0
19.11.2017 04:00:00 4,3 -0,3 1,8 6,6 15,7 15 8 19 11 N 1018,1 10 0 0,0
19.11.2017 03:00:00 4,5 -0,3 2,4 6,8 15,7 10 5 16 9 NNW 1018,5 25 0 0,0
19.11.2017 02:00:00 5,1 0,3 3,5 7,0 15,7 15 8 27 14 NNW 1018,6 10 0 0,0
19.11.2017 01:00:00 5,3 0,1 0,1 7,2 15,7 16 9 22 12 N 1019,0 10 0 0,0
19.11.2017 00:00:00 5,6 -0,1 2,9 7,5 15,7 11 6 20 11 N 1019,3 10 0 0,0
18.11.2017 23:00:00 6,3 0,4 3,5 7,7 15,7 18 10 26 14 N 1019,5 10 0 0,0
18.11.2017 22:00:00 6,2 1,3 -0,1 8,1 15,7 9 5 12 6 NNW 1019,4 10 0 0,0
18.11.2017 21:00:00 5,5 1,0 0,7 8,4 15,8 4 2 8 4 SW 1019,1 14 0 0,0
18.11.2017 20:00:00 7,0 1,5 3,1 8,7 15,8 5 3 19 11 NW 1019,2 10 0 0,0
18.11.2017 19:00:00 8,2 1,3 6,9 8,9 15,8 13 7 21 11 NW 1019,1 10 0 0,0
18.11.2017 18:00:00 9,3 1,4 8,3 9,0 15,8 14 7 30 16 NNW 1018,7 32 0 0,0
18.11.2017 17:00:00 10,6 2,4 10,4 8,9 15,8 23 13 31 17 NNW 1018,3 31 57 0,0
18.11.2017 16:00:00 12,1 2,8 14,1 8,6 15,8 26 14 34 18 NW 1018,2 10 60 0,0
18.11.2017 15:00:00 13,1 3,7 16,0 8,0 15,8 21 11 29 16 NW 1018,2 10 60 0,0
18.11.2017 14:00:00 13,3 3,6 16,4 7,4 15,8 22 12 31 17 NW 1018,4 10 60 0,0
18.11.2017 13:00:00 13,1 3,5 16,4 6,6 15,8 13 7 28 15 NW 1018,7 10 60 0,0
18.11.2017 12:00:00 12,3 2,4 15,2 6,0 15,9 13 7 23 13 NNW 1019,3 10 60 0,0
18.11.2017 11:00:00 10,4 2,0 12,4 5,6 15,9 13 7 18 10 NNW 1019,5 10 60 0,0
18.11.2017 10:00:00 7,6 1,4 7,5 5,5 15,9 4 2 10 5 - 1019,5 10 60 0,0
18.11.2017 09:00:00 4,7 1,0 0,5 5,6 15,9 9 5 19 11 SE 1019,4 9 60 0,0
18.11.2017 08:00:00 1,4 -0,8 -1,3 5,8 15,9 11 6 19 11 NNW 1019,0 10 3 0,0
18.11.2017 07:00:00 0,5 -1,7 -1,6 6,0 15,9 4 2 13 7 - 1018,5 9 0 0,0
18.11.2017 06:00:00 1,3 -1,6 -1,4 6,2 15,9 5 3 16 8 N 1018,2 10 0 0,0
18.11.2017 05:00:00 2,3 -0,3 -0,7 6,5 15,9 13 7 18 10 N 1018,1 10 0 0,0
18.11.2017 04:00:00 1,9 -0,7 -0,7 6,8 15,9 13 7 15 8 N 1018,0 10 0 0,0
18.11.2017 03:00:00 1,7 -1,2 -0,6 7,1 16,0 4 2 11 6 SSE 1018,0 9 0 0,0
18.11.2017 02:00:00 1,8 -0,8 -0,4 7,4 15,9 9 5 12 6 SE 1017,9 10 0 0,0
18.11.2017 01:00:00 2,6 -1,2 -0,1 7,6 15,9 3 1 11 6 ESE 1018,1 9 0 0,0
18.11.2017 00:00:00 6,4 1,9 0,4 7,9 16,0 8 4 13 7 NNW 1018,1 10 0 0,0
17.11.2017 23:00:00 4,2 -1,2 1,0 8,2 16,0 0 0 10 5 N 1017,9 10 0 0,0
17.11.2017 22:00:00 4,7 -0,1 1,9 8,6 16,0 4 2 7 4 - 1018,1 10 0 0,0
17.11.2017 21:00:00 7,2 -0,1 1,8 8,8 16,0 2 1 13 7 - 1017,7 10 0 0,0
17.11.2017 20:00:00 7,8 1,0 6,1 9,0 16,0 11 6 26 14 NW 1017,7 10 0 0,0
17.11.2017 19:00:00 9,5 0,9 7,4 9,2 16,0 21 11 38 20 NW 1017,5 10 0 0,0
17.11.2017 18:00:00 10,8 1,3 9,2 9,3 16,0 13 7 29 15 NW 1017,1 10 0 0,0
17.11.2017 17:00:00 11,7 1,6 11,5 9,2 16,0 18 10 24 13 NW 1016,9 10 58 0,0
17.11.2017 16:00:00 13,3 1,3 15,8 8,9 16,0 11 6 22 12 WNW 1017,1 10 60 0,0
17.11.2017 15:00:00 13,2 1,8 16,2 8,4 16,0 9 5 15 8 W 1017,4 10 60 0,0
17.11.2017 14:00:00 12,1 0,2 13,6 7,8 16,0 13 7 27 15 WNW 1017,9 10 60 0,0
17.11.2017 13:00:00 12,0 1,3 13,6 7,1 16,0 19 10 27 15 WNW 1018,1 11 60 0,0
17.11.2017 12:00:00 11,2 1,4 11,6 6,6 16,0 9 5 13 7 WSW 1018,4 10 60 0,0
17.11.2017 11:00:00 8,9 0,8 11,8 6,1 16,0 4 2 9 5 - 1019,0 10 60 0,0
17.11.2017 10:00:00 7,4 0,4 7,7 6,0 16,1 2 1 9 5 - 1019,3 10 60 0,0
17.11.2017 09:00:00 5,4 -0,2 1,0 6,1 16,1 5 3 18 10 NNW 1019,2 10 60 0,0
17.11.2017 08:00:00 2,1 -1,3 -0,5 6,3 16,1 11 6 22 12 N 1018,8 10 6 0,0
17.11.2017 07:00:00 3,9 -0,3 -1,1 6,5 16,1 13 7 19 10 N 1018,5 10 0 0,0
17.11.2017 06:00:00 1,4 -2,0 -0,9 6,8 16,1 5 3 17 9 - 1018,2 8 0 0,0
17.11.2017 05:00:00 1,6 -1,1 -1,4 7,0 16,1 11 6 16 9 N 1018,2 7 0 0,0
17.11.2017 04:00:00 1,3 -1,4 -0,2 7,2 16,1 9 5 14 8 SE 1018,0 9 0 0,0
17.11.2017 03:00:00 4,3 0,3 1,5 7,5 16,1 15 8 20 11 N 1018,4 10 0 0,0
17.11.2017 02:00:00 3,7 0,6 -0,9 7,8 16,1 9 5 13 7 NNW 1018,4 9 0 0,0
17.11.2017 01:00:00 4,3 -0,1 1,2 8,1 16,1 13 7 14 8 NW 1018,6 10 0 0,0
17.11.2017 00:00:00 5,5 0,5 3,9 8,3 16,2 11 6 21 11 NNW 1019,1 10 0 0,0
16.11.2017 23:00:00 6,6 0,1 5,7 8,6 16,2 18 10 24 13 NW 1019,0 10 0 0,0
16.11.2017 22:00:00 7,5 0,7 5,0 8,8 16,2 21 11 26 14 NW 1018,9 10 0 0,0
16.11.2017 21:00:00 8,1 1,5 6,9 9,0 16,2 16 9 27 15 NNW 1018,9 10 0 0,0
16.11.2017 20:00:00 9,2 1,6 5,7 9,3 16,2 21 11 26 14 NW 1018,8 10 0 0,0
16.11.2017 19:00:00 8,6 1,5 5,9 9,5 16,2 7 4 16 8 WNW 1018,6 16 0 0,0
16.11.2017 18:00:00 10,9 1,9 6,1 9,7 16,2 15 8 24 13 NW 1018,5 10 0 0,0
16.11.2017 17:00:00 11,4 4,1 10,1 9,6 16,2 8 4 13 7 W 1018,4 10 50 0,0
16.11.2017 16:00:00 14,9 1,4 17,4 9,2 16,2 4 2 7 4 WSW 1018,4 10 60 0,0
16.11.2017 15:00:00 14,3 1,2 17,7 8,6 16,2 4 2 8 4 W 1018,8 26 60 0,0
16.11.2017 14:00:00 13,8 0,4 17,1 7,9 16,2 5 3 9 5 W 1019,5 20 60 0,0
16.11.2017 13:00:00 12,4 1,1 14,5 7,2 16,2 2 1 9 5 - 1020,0 10 60 0,0
16.11.2017 12:00:00 9,6 2,0 13,0 6,6 16,3 8 4 12 7 W 1020,4 10 60 0,0
16.11.2017 11:00:00 9,2 2,3 12,8 6,1 16,2 8 4 11 6 W 1020,9 10 60 0,0
16.11.2017 10:00:00 9,2 1,4 8,3 6,0 16,3 4 2 11 6 - 1020,4 10 60 0,0
16.11.2017 09:00:00 6,1 1,2 1,4 6,1 16,3 8 4 11 6 ESE 1020,6 10 60 0,0
16.11.2017 08:00:00 3,4 -0,6 -1,3 6,3 16,3 5 3 8 4 SE 1019,9 10 7 0,0
16.11.2017 07:00:00 1,4 -2,7 -1,2 6,5 16,3 6 4 11 6 SE 1019,5 21 0 0,0
16.11.2017 06:00:00 1,6 -1,7 -1,0 6,8 16,3 9 5 11 6 SE 1019,2 10 0 0,0
16.11.2017 05:00:00 1,2 -2,7 -1,4 7,0 16,3 8 4 10 6 ESE 1019,5 10 0 0,0
16.11.2017 04:00:00 2,3 -1,0 -1,3 7,2 16,3 0 0 9 5 N 1019,5 10 0 0,0
16.11.2017 03:00:00 2,1 -1,2 -0,2 7,5 16,3 5 3 9 5 SE 1019,5 10 0 0,0
16.11.2017 02:00:00 3,1 -0,4 -0,3 7,8 16,3 4 2 13 7 - 1019,4 10 0 0,0
16.11.2017 01:00:00 2,3 -0,8 -0,3 8,2 16,4 11 6 12 6 ESE 1019,5 10 0 0,0
16.11.2017 00:00:00 2,5 -0,8 0,2 8,5 16,3 8 4 12 7 SE 1019,7 10 0 0,0
15.11.2017 23:00:00 4,8 0,0 1,7 8,8 16,3 11 6 15 8 ESE 1019,5 10 0 0,0
15.11.2017 22:00:00 4,0 -0,8 1,6 9,1 16,3 8 4 9 5 SE 1019,6 10 0 0,0
15.11.2017 21:00:00 6,5 1,2 2,6 9,5 16,4 2 1 14 8 - 1019,3 10 0 0,0
15.11.2017 20:00:00 6,5 0,8 2,9 9,8 16,4 11 6 13 7 ESE 1018,9 10 0 0,0
15.11.2017 19:00:00 8,3 1,9 4,1 10,1 16,3 9 5 12 7 SE 1018,2 10 0 0,0
15.11.2017 18:00:00 9,5 1,9 5,5 10,2 16,3 0 0 13 7 N 1017,6 10 0 0,0
15.11.2017 17:00:00 12,8 1,5 12,9 10,1 16,4 8 4 17 9 N 1017,2 10 60 0,0
15.11.2017 16:00:00 14,2 2,7 16,7 9,8 16,4 9 5 17 9 W 1016,9 10 60 0,0
15.11.2017 15:00:00 14,6 1,5 17,4 9,2 16,4 11 6 17 9 WSW 1016,7 10 60 0,0
15.11.2017 14:00:00 14,4 1,0 16,6 8,6 16,4 9 5 12 7 WSW 1016,6 10 60 0,0
15.11.2017 13:00:00 13,3 0,3 15,4 7,9 16,4 9 5 18 10 W 1017,3 10 60 0,0
15.11.2017 12:00:00 11,7 -0,2 13,7 7,4 16,4 15 8 18 10 NW 1017,7 10 60 0,0
15.11.2017 11:00:00 9,6 -0,9 11,9 7,0 16,4 11 6 21 12 NNW 1018,0 10 60 0,0
15.11.2017 10:00:00 7,6 -0,9 8,7 7,0 16,4 11 6 24 13 NNW 1017,8 10 60 0,0
15.11.2017 09:00:00 5,5 -1,2 4,2 7,0 16,4 13 7 27 15 N 1017,9 10 60 0,0
15.11.2017 08:00:00 4,3 -1,5 0,0 7,2 16,4 18 10 26 14 N 1017,3 10 13 0,0
15.11.2017 07:00:00 4,0 -1,2 2,5 7,4 16,4 16 9 27 15 N 1017,3 10 0 0,0
15.11.2017 06:00:00 4,3 -0,7 2,7 7,6 16,4 15 8 23 12 N 1016,9 25 0 0,0
15.11.2017 05:00:00 3,9 -0,9 2,7 7,8 16,4 15 8 21 11 N 1017,1 10 0 0,0
15.11.2017 04:00:00 4,4 -0,4 3,0 8,0 16,5 13 7 20 11 N 1017,1 10 0 0,0
15.11.2017 03:00:00 4,9 -0,1 3,6 8,3 16,5 13 7 21 12 NNW 1017,6 10 0 0,0
15.11.2017 02:00:00 5,6 0,4 -0,2 8,6 16,5 15 8 19 10 NNW 1017,8 10 0 0,0
15.11.2017 01:00:00 3,1 -1,7 -0,1 8,9 16,5 10 6 14 8 N 1018,1 23 0 0,0
15.11.2017 00:00:00 6,1 0,6 1,5 9,1 16,5 9 5 20 11 NNW 1018,2 10 0 0,0
14.11.2017 23:00:00 7,0 0,2 5,4 9,4 16,5 9 5 16 9 NNW 1018,5 10 0 0,0
14.11.2017 22:00:00 7,5 0,0 4,7 9,8 16,5 10 5 18 10 N 1018,7 46 0 0,0
14.11.2017 21:00:00 7,7 -0,8 2,8 10,1 16,5 8 4 11 6 NNE 1018,3 10 0 0,0
14.11.2017 20:00:00 8,3 -0,5 6,5 10,4 16,5 7 4 24 13 W 1017,9 60 0 0,0
14.11.2017 19:00:00 8,9 -0,7 7,5 10,7 16,5 16 9 24 13 NW 1017,6 10 0 0,0
14.11.2017 18:00:00 9,7 -1,1 8,6 10,8 16,5 18 10 34 18 NNW 1017,3 10 3 0,0
14.11.2017 17:00:00 10,8 -0,1 11,1 10,8 16,5 21 11 31 17 NW 1016,8 10 60 0,0
14.11.2017 16:00:00 12,1 0,2 14,8 10,6 16,5 21 11 37 20 NW 1016,5 10 60 0,0
14.11.2017 15:00:00 12,5 0,6 15,9 10,2 16,5 26 14 35 19 NNW 1016,5 10 60 0,0
14.11.2017 14:00:00 12,8 0,2 16,5 9,7 16,5 28 15 37 20 NNW 1016,7 10 60 0,0
14.11.2017 13:00:00 13,0 -1,0 16,2 9,1 16,5 16 9 29 16 NNW 1017,0 10 60 0,0
14.11.2017 12:00:00 11,8 -1,7 14,2 8,7 16,5 21 11 32 18 N 1017,3 44 60 0,0

tt = Température de l'air
td = dewpoint
tt 5cm = Température de l'air 5cm
tt -20cm = Température de l'air -20cm
tt -100cm = Température de l'air -100cm
ff = Vitesse du vent
fx = gusts
dd = Direction du vent
ppp = reduced air pressure
vv = visibility
sd = Ensoleillement
rr = Quantités de précipitations

stations d'obs. à proximité